Regional Weather Roundup
Issued by NWS New Orleans/Baton Rouge, LA

Home | Current Version | Previous Version | Graphics & Text | Print | Product List | Glossary On
Versions: 1 2 3 4 5 6 7 8 9 10 11 12 13 14 15 16 17 18 19 20 21 22 23 24 25 26 27 28 29 30 31 32 33 34 35 36 37 38 39 40 41 42 43 44 45 46 47 48 49 50
033
ASUS44 KLIX 240505
RWRLIX
NEW ORLEANS REGIONAL WEATHER ROUNDUP
NATIONAL WEATHER SERVICE NEW ORLEANS LA
1100 PM CST SUN NOV 23 2014

NOTE: "FAIR" INDICATES FEW OR NO CLOUDS BELOW 12,000 FEET WITH NO
      SIGNIFICANT WEATHER AND/OR OBSTRUCTIONS TO VISIBILITY.
      SKY/WX - SKY CONDITION AND SIGNIFICANT WEATHER.
      TMP - AIR TEMPERATURE.     DP    - DEWPOINT TEMPERATURE.
      RH  - RELATIVE HUMIDITY.   PRES  - PRESSURE.
      HI  - HEAT INDEX.          WCI   - WIND CHILL INDEX.

*  THESE STATIONS ARE NOT NWS OR FAA STATIONS AND ARE NOT UNDER
   NWS QUALITY CONTROL.

LAZ038-040-048-061>063-065>067-069-240600-
SOUTHEAST LOUISIANA

CITY           SKY/WX    TMP DP  RH WIND       PRES   REMARKS
N.O. AUDUBON     N/A     67  67  99 MISG        N/A
N.O. INTL ARPT FOG       65  63  93 S9        29.74S VSB 1/2
N.O. LAKEFRONT CLEAR     69  65  86 S13       29.75S
N.O. DOWNTOWN* CLOUDY    68  64  88 S9        29.76S
SLIDELL        PTCLDY    68  65  90 S8        29.74R
BATON ROUGE    PTCLDY    67  64  90 SW14      29.71R
BOOTHVILLE     CLEAR     67  67 100 S9        29.77S
BELLE CHASSE   CLOUDY    68  65  90 SW7       29.75R
BOGALUSA*        N/A     68  64  86 SW7       29.74S
NEW ROADS*       N/A     66  64  96 S8        29.71R
GONZALES*        N/A     65  65 100 S3        29.72S FOG
HAMMOND*       MOCLDY    70  64  83 S7        29.74S
HOUMA*         CLEAR     68  66  93 S6        29.75R FOG
PORT FOURCHON* PTCLDY    72  70  94 S10       29.80R FOG

$$

MSZ070-080>082-240600-
SOUTHERN MISSISSIPPI

CITY           SKY/WX    TMP DP  RH WIND       PRES   REMARKS
MCCOMB         MOCLDY    64  62  93 S7        29.71R
GULFPORT       CLOUDY    65  64  97 S7        29.76R FOG
BILOXI         CLOUDY    65  65 100 SW12      29.76S
PASCAGOULA     CLOUDY    69  67  93 S9G17     29.77R

$$

COASTAL OBSERVATIONS
LAKE AND NEARSHORE STATIONS

STATION/POSITION TIME  TEMP    WIND        PRES    WAVE
                       AIR SEA DIR/SP/G            HT/PER
                 (UTC) (F)     (DEG/KT/KT) (MB)    (FT/S)
PASCAGOULA       0500   66     200/ 11/ 14 1007.5
WAVELAND YACHT   0500   63     190/  7/ 11 1006.8
GRAND ISLE       0500   70 65  210/  8/ 12 1008.3
SOUTHWEST PASS   0500   69                 1008.4
NEW CANAL        0500   67 56  200/  6/  7 1007.6
SHELL BEACH      0500   68 54  190/  9/ 12 1007.5

OFFSHORE STATIONS

STATION/POSITION TIME  TEMP    WIND        PRES    WAVE
                       AIR SEA DIR/SP/G            HT/PER
                 (UTC) (F)     (DEG/KT/KT) (MB)    (FT/S)
64 S DAUPHIN ISL 0357   73 72  200/ 10/ 12 1009.0    6/ 7

$$




USA.gov is the U.S. government's official web portal to all federal, state and local government web resources and services.